Time,TemperatureF,DewpointF,PressureIn,WindDirection,WindDirectionDegrees,WindSpeedMPH,WindSpeedGustMPH,Humidity,HourlyPrecipIn,Conditions,Clouds,dailyrainin,SoftwareType,DateUTC
2013-02-21 00:04:00,16.3,14.2,29.60,SSE,165,0.0,1.0,91,0.00,,,0.00,meteohub,2013-02-21 07:04:00,
2013-02-21 00:09:00,16.2,14.2,29.60,SSE,165,0.0,0.0,92,0.00,,,0.00,meteohub,2013-02-21 07:09:00,
2013-02-21 00:14:00,16.2,14.5,29.59,NW,318,0.0,0.0,93,0.00,,,0.00,meteohub,2013-02-21 07:14:00,
2013-02-21 00:19:00,16.0,14.4,29.59,NW,318,0.0,1.0,93,0.00,,,0.00,meteohub,2013-02-21 07:19:00,
2013-02-21 00:24:00,16.0,14.4,29.59,NW,317,0.0,1.0,93,0.00,,,0.00,meteohub,2013-02-21 07:24:00,
2013-02-21 00:29:00,16.0,14.4,29.58,NW,318,0.0,1.0,93,0.00,,,0.00,meteohub,2013-02-21 07:29:00,
2013-02-21 00:34:00,16.0,14.4,29.58,NW,318,0.0,0.0,93,0.00,,,0.00,meteohub,2013-02-21 07:34:00,
2013-02-21 00:39:00,15.6,13.6,29.58,NW,317,0.0,1.0,92,0.00,,,0.00,meteohub,2013-02-21 07:39:00,
2013-02-21 00:44:00,15.4,13.5,29.59,NW,318,0.0,1.0,92,0.00,,,0.00,meteohub,2013-02-21 07:44:00,
2013-02-21 00:49:00,15.4,13.5,29.59,NNW,329,2.0,0.0,92,0.00,,,0.00,meteohub,2013-02-21 07:49:00,
2013-02-21 00:55:00,15.1,13.1,29.58,NW,326,0.0,2.0,92,0.00,,,0.00,meteohub,2013-02-21 07:55:00,
2013-02-21 01:00:00,15.1,13.5,29.57,NW,326,0.0,3.0,93,0.00,,,0.00,meteohub,2013-02-21 08:00:00,
2013-02-21 01:05:00,15.1,13.5,29.58,NW,326,0.0,3.0,93,0.00,,,0.00,meteohub,2013-02-21 08:05:00,
2013-02-21 01:10:00,15.1,13.5,29.59,NW,326,0.0,2.0,93,0.00,,,0.00,meteohub,2013-02-21 08:10:00,
2013-02-21 01:15:00,15.1,13.1,29.59,NW,326,0.0,1.0,92,0.00,,,0.00,meteohub,2013-02-21 08:15:00,
2013-02-21 01:20:00,14.7,12.7,29.59,NW,326,0.0,1.0,92,0.00,,,0.00,meteohub,2013-02-21 08:20:00,
2013-02-21 01:25:00,14.9,13.3,29.59,NW,326,0.0,0.0,93,0.00,,,0.00,meteohub,2013-02-21 08:25:00,
2013-02-21 01:30:00,14.9,12.9,29.60,East,93,0.0,1.0,92,0.00,,,0.00,meteohub,2013-02-21 08:30:00,
2013-02-21 01:35:00,14.9,12.9,29.59,East,94,0.0,1.0,92,0.00,,,0.00,meteohub,2013-02-21 08:35:00,
2013-02-21 01:40:00,14.7,12.7,29.59,ESE,120,1.0,2.0,92,0.00,,,0.00,meteohub,2013-02-21 08:40:00,
2013-02-21 01:45:00,14.5,12.6,29.58,ESE,114,1.0,2.0,92,0.00,,,0.00,meteohub,2013-02-21 08:45:00,
2013-02-21 01:50:00,14.7,13.1,29.58,SE,131,1.0,2.0,93,0.00,,,0.00,meteohub,2013-02-21 08:50:00,
2013-02-21 01:55:00,14.7,12.7,29.58,ESE,110,1.0,2.0,92,0.00,,,0.00,meteohub,2013-02-21 08:55:00,
2013-02-21 02:00:00,14.7,12.7,29.59,ESE,108,0.0,2.0,92,0.00,,,0.00,meteohub,2013-02-21 09:00:00,
2013-02-21 02:05:00,14.9,12.9,29.58,ESE,108,0.0,2.0,92,0.00,,,0.00,meteohub,2013-02-21 09:05:00,
2013-02-21 02:10:00,14.7,12.7,29.58,SE,139,1.0,2.0,92,0.00,,,0.00,meteohub,2013-02-21 09:10:00,
2013-02-21 02:15:00,14.7,12.7,29.59,ESE,117,0.0,2.0,92,0.00,,,0.00,meteohub,2013-02-21 09:15:00,
2013-02-21 02:21:00,14.9,12.9,29.59,ESE,117,0.0,2.0,92,0.00,,,0.00,meteohub,2013-02-21 09:21:00,
2013-02-21 02:26:00,14.7,12.7,29.58,ESE,117,0.0,2.0,92,0.00,,,0.00,meteohub,2013-02-21 09:26:00,
2013-02-21 02:31:00,14.5,12.6,29.58,ESE,115,1.0,2.0,92,0.00,,,0.00,meteohub,2013-02-21 09:31:00,
2013-02-21 02:36:00,14.5,12.6,29.58,ESE,117,2.0,2.0,92,0.00,,,0.00,meteohub,2013-02-21 09:36:00,
2013-02-21 02:41:00,14.9,13.3,29.57,ESE,112,2.0,2.0,93,0.00,,,0.00,meteohub,2013-02-21 09:41:00,
2013-02-21 02:46:00,15.1,13.1,29.57,SE,127,0.0,2.0,92,0.00,,,0.00,meteohub,2013-02-21 09:46:00,
2013-02-21 02:51:00,14.9,12.9,29.57,SE,125,1.0,2.0,92,0.00,,,0.00,meteohub,2013-02-21 09:51:00,
2013-02-21 02:56:00,15.1,13.1,29.57,ESE,115,2.0,2.0,92,0.00,,,0.00,meteohub,2013-02-21 09:56:00,
2013-02-21 03:01:00,15.1,13.1,29.57,SE,135,2.0,3.0,92,0.00,,,0.00,meteohub,2013-02-21 10:01:00,
2013-02-21 03:06:00,14.7,12.7,29.57,ESE,123,1.0,3.0,92,0.00,,,0.00,meteohub,2013-02-21 10:06:00,
2013-02-21 03:11:00,14.5,12.4,29.57,SSE,159,0.0,3.0,91,0.00,,,0.00,meteohub,2013-02-21 10:11:00,
2013-02-21 03:16:00,14.4,12.2,29.57,South,191,0.0,2.0,91,0.00,,,0.00,meteohub,2013-02-21 10:16:00,
2013-02-21 03:21:00,14.0,11.8,29.57,SSW,212,1.0,2.0,91,0.00,,,0.00,meteohub,2013-02-21 10:21:00,
2013-02-21 03:26:00,13.8,12.0,29.56,SSE,157,3.0,4.0,92,0.00,,,0.00,meteohub,2013-02-21 10:26:00,
2013-02-21 03:31:00,14.4,12.7,29.56,ESE,119,3.0,6.0,93,0.00,,,0.00,meteohub,2013-02-21 10:31:00,
2013-02-21 03:37:00,14.7,13.1,29.57,SSE,153,1.0,6.0,93,0.00,,,0.00,meteohub,2013-02-21 10:37:00,
2013-02-21 03:42:00,14.9,12.9,29.57,SSW,200,2.0,9.0,92,0.00,,,0.00,meteohub,2013-02-21 10:42:00,
2013-02-21 03:47:00,14.9,12.9,29.57,SE,129,3.0,9.0,92,0.00,,,0.00,meteohub,2013-02-21 10:47:00,
2013-02-21 03:52:00,14.9,12.9,29.57,SSE,166,3.0,7.0,92,0.00,,,0.00,meteohub,2013-02-21 10:52:00,
2013-02-21 03:57:00,15.1,13.1,29.57,SSE,158,3.0,9.0,92,0.00,,,0.00,meteohub,2013-02-21 10:57:00,
2013-02-21 04:02:00,15.1,13.1,29.57,SE,135,4.0,9.0,92,0.00,,,0.00,meteohub,2013-02-21 11:02:00,
2013-02-21 04:07:00,15.3,13.3,29.57,SE,134,3.0,7.0,92,0.00,,,0.00,meteohub,2013-02-21 11:07:00,
2013-02-21 04:12:00,15.4,13.5,29.58,SE,146,1.0,7.0,92,0.00,,,0.00,meteohub,2013-02-21 11:12:00,
2013-02-21 04:17:00,15.4,13.8,29.58,SE,145,1.0,7.0,93,0.00,,,0.00,meteohub,2013-02-21 11:17:00,
2013-02-21 04:22:00,15.3,13.3,29.59,SE,139,0.0,7.0,92,0.00,,,0.00,meteohub,2013-02-21 11:22:00,
2013-02-21 04:27:00,14.9,12.7,29.59,SW,221,1.0,6.0,91,0.00,,,0.00,meteohub,2013-02-21 11:27:00,
2013-02-21 04:32:00,14.5,12.4,29.59,NW,325,0.0,6.0,91,0.00,,,0.00,meteohub,2013-02-21 11:32:00,
2013-02-21 04:37:00,14.5,12.6,29.59,SW,230,0.0,5.0,92,0.00,,,0.00,meteohub,2013-02-21 11:37:00,
2013-02-21 04:42:00,14.5,12.6,29.60,WSW,245,0.0,5.0,92,0.00,,,0.00,meteohub,2013-02-21 11:42:00,
2013-02-21 04:47:00,14.4,12.0,29.60,NNW,332,1.0,3.0,90,0.00,,,0.00,meteohub,2013-02-21 11:47:00,
2013-02-21 04:52:00,13.6,11.3,29.60,SSE,153,1.0,3.0,90,0.00,,,0.00,meteohub,2013-02-21 11:52:00,
2013-02-21 04:57:00,13.5,11.3,29.61,NNW,342,1.0,7.0,91,0.00,,,0.00,meteohub,2013-02-21 11:57:00,
2013-02-21 05:02:00,13.5,11.7,29.61,SE,132,0.0,7.0,92,0.00,,,0.00,meteohub,2013-02-21 12:02:00,
2013-02-21 05:07:00,13.8,12.0,29.61,SSE,162,2.0,9.0,92,0.00,,,0.00,meteohub,2013-02-21 12:07:00,
2013-02-21 05:12:00,14.2,12.2,29.61,SSE,153,2.0,9.0,92,0.00,,,0.00,meteohub,2013-02-21 12:12:00,
2013-02-21 05:17:00,14.4,12.4,29.61,WSW,238,7.0,9.0,92,0.00,,,0.00,meteohub,2013-02-21 12:17:00,
2013-02-21 05:22:00,14.4,12.4,29.61,SSE,167,5.0,9.0,92,0.00,,,0.00,meteohub,2013-02-21 12:22:00,
2013-02-21 05:27:00,14.4,12.4,29.62,SSE,164,6.0,9.0,92,0.00,,,0.00,meteohub,2013-02-21 12:27:00,
2013-02-21 05:32:00,14.4,12.4,29.62,SSE,158,4.0,11.0,92,0.00,,,0.00,meteohub,2013-02-21 12:32:00,
2013-02-21 05:37:00,14.4,12.2,29.62,SSW,207,3.0,11.0,91,0.00,,,0.00,meteohub,2013-02-21 12:37:00,
2013-02-21 05:42:00,14.2,12.0,29.62,WSW,252,3.0,11.0,91,0.00,,,0.00,meteohub,2013-02-21 12:42:00,
2013-02-21 05:47:00,14.0,11.8,29.62,South,171,4.0,11.0,91,0.00,,,0.00,meteohub,2013-02-21 12:47:00,
2013-02-21 05:52:00,13.8,12.0,29.62,East,94,4.0,11.0,92,0.00,,,0.00,meteohub,2013-02-21 12:52:00,
2013-02-21 05:57:00,13.8,12.0,29.62,SE,146,5.0,10.0,92,0.00,,,0.00,meteohub,2013-02-21 12:57:00,
2013-02-21 06:02:00,13.8,12.0,29.62,SE,135,6.0,10.0,92,0.00,,,0.00,meteohub,2013-02-21 13:02:00,
2013-02-21 06:07:00,13.8,12.0,29.62,SE,143,6.0,13.0,92,0.00,,,0.00,meteohub,2013-02-21 13:07:00,
2013-02-21 06:12:00,13.8,12.0,29.63,SW,235,5.0,15.0,92,0.00,,,0.00,meteohub,2013-02-21 13:12:00,
2013-02-21 06:17:00,13.8,12.2,29.63,South,169,6.0,15.0,93,0.00,,,0.00,meteohub,2013-02-21 13:17:00,
2013-02-21 06:22:00,13.8,12.2,29.64,WNW,284,9.0,15.0,93,0.00,,,0.00,meteohub,2013-02-21 13:22:00,
2013-02-21 06:27:00,14.2,12.6,29.64,South,176,7.0,14.0,93,0.00,,,0.00,meteohub,2013-02-21 13:27:00,
2013-02-21 06:32:00,14.2,12.6,29.65,South,188,4.0,11.0,93,0.00,,,0.00,meteohub,2013-02-21 13:32:00,
2013-02-21 06:37:00,14.4,12.7,29.65,NW,307,7.0,11.0,93,0.00,,,0.00,meteohub,2013-02-21 13:37:00,
2013-02-21 06:42:00,14.4,12.7,29.66,SW,215,4.0,12.0,93,0.00,,,0.00,meteohub,2013-02-21 13:42:00,
2013-02-21 06:47:00,14.4,12.4,29.67,SSW,195,2.0,12.0,92,0.00,,,0.00,meteohub,2013-02-21 13:47:00,
2013-02-21 06:52:00,14.4,12.4,29.67,SSE,149,2.0,9.0,92,0.00,,,0.00,meteohub,2013-02-21 13:52:00,
2013-02-21 06:57:00,14.4,12.4,29.68,WSW,245,2.0,9.0,92,0.00,,,0.00,meteohub,2013-02-21 13:57:00,
2013-02-21 07:03:00,14.4,12.4,29.68,SE,126,6.0,8.0,92,0.00,,,0.00,meteohub,2013-02-21 14:03:00,
2013-02-21 07:08:00,14.4,12.4,29.68,SSW,194,2.0,6.0,92,0.00,,,0.00,meteohub,2013-02-21 14:08:00,
2013-02-21 07:13:00,14.4,12.4,29.68,SE,131,4.0,6.0,92,0.00,,,0.00,meteohub,2013-02-21 14:13:00,
2013-02-21 07:18:00,14.2,12.2,29.68,South,178,3.0,6.0,92,0.00,,,0.00,meteohub,2013-02-21 14:18:00,
2013-02-21 07:23:00,14.4,12.4,29.69,SW,229,7.0,12.0,92,0.00,,,0.00,meteohub,2013-02-21 14:23:00,
2013-02-21 07:28:00,14.2,12.2,29.69,SSE,155,1.0,12.0,92,0.00,,,0.00,meteohub,2013-02-21 14:28:00,
2013-02-21 07:33:00,14.0,11.8,29.70,SE,131,4.0,12.0,91,0.00,,,0.00,meteohub,2013-02-21 14:33:00,
2013-02-21 07:38:00,13.8,11.7,29.70,SE,136,6.0,11.0,91,0.00,,,0.00,meteohub,2013-02-21 14:38:00,
2013-02-21 07:43:00,13.8,11.7,29.70,West,271,4.0,11.0,91,0.00,,,0.00,meteohub,2013-02-21 14:43:00,
2013-02-21 07:48:00,14.0,12.0,29.70,SE,136,7.0,14.0,92,0.00,,,0.00,meteohub,2013-02-21 14:48:00,
2013-02-21 07:53:00,14.2,12.2,29.70,ESE,120,6.0,14.0,92,0.00,,,0.00,meteohub,2013-02-21 14:53:00,
2013-02-21 07:59:00,14.4,12.4,29.70,SSE,162,7.0,14.0,92,0.00,,,0.00,meteohub,2013-02-21 14:59:00,
2013-02-21 08:04:00,14.4,12.2,29.70,East,101,8.0,13.0,91,0.00,,,0.00,meteohub,2013-02-21 15:04:00,
2013-02-21 08:09:00,14.4,12.4,29.70,SE,140,8.0,13.0,92,0.00,,,0.00,meteohub,2013-02-21 15:09:00,
2013-02-21 08:14:00,14.7,12.7,29.71,SSE,159,7.0,16.0,92,0.00,,,0.00,meteohub,2013-02-21 15:14:00,
2013-02-21 08:19:00,14.7,12.7,29.70,SE,131,5.0,16.0,92,0.00,,,0.00,meteohub,2013-02-21 15:19:00,
2013-02-21 08:24:00,15.1,13.1,29.71,East,82,7.0,16.0,92,0.00,,,0.00,meteohub,2013-02-21 15:24:00,
2013-02-21 08:29:00,15.3,13.3,29.71,South,173,4.0,16.0,92,0.00,,,0.00,meteohub,2013-02-21 15:29:00,
2013-02-21 08:34:00,15.3,13.3,29.71,SSE,161,6.0,16.0,92,0.00,,,0.00,meteohub,2013-02-21 15:34:00,
2013-02-21 08:39:00,15.4,13.5,29.71,East,86,6.0,13.0,92,0.00,,,0.00,meteohub,2013-02-21 15:39:00,
2013-02-21 08:44:00,15.6,13.6,29.71,South,191,7.0,13.0,92,0.00,,,0.00,meteohub,2013-02-21 15:44:00,
2013-02-21 08:49:00,15.6,13.5,29.72,SE,143,4.0,12.0,91,0.00,,,0.00,meteohub,2013-02-21 15:49:00,
2013-02-21 08:55:00,15.8,13.8,29.72,South,176,7.0,12.0,92,0.00,,,0.00,meteohub,2013-02-21 15:55:00,
2013-02-21 09:00:00,16.0,13.8,29.73,ESE,122,5.0,12.0,91,0.00,,,0.00,meteohub,2013-02-21 16:00:00,
2013-02-21 09:05:00,16.2,14.2,29.73,ESE,115,4.0,14.0,92,0.00,,,0.00,meteohub,2013-02-21 16:05:00,
2013-02-21 09:10:00,16.3,14.2,29.73,SE,131,7.0,17.0,91,0.00,,,0.00,meteohub,2013-02-21 16:10:00,
2013-02-21 09:15:00,16.3,14.2,29.73,South,187,5.0,14.0,91,0.00,,,0.00,meteohub,2013-02-21 16:15:00,
2013-02-21 09:20:00,16.7,14.4,29.73,SW,224,13.0,13.0,90,0.00,,,0.00,meteohub,2013-02-21 16:20:00,
2013-02-21 09:25:00,17.1,14.7,29.73,East,79,4.0,13.0,90,0.00,,,0.00,meteohub,2013-02-21 16:25:00,
2013-02-21 09:30:00,17.8,15.1,29.73,SSE,162,9.0,13.0,89,0.00,,,0.00,meteohub,2013-02-21 16:30:00,
2013-02-21 09:36:00,18.0,15.1,29.73,SE,146,8.0,13.0,88,0.00,,,0.00,meteohub,2013-02-21 16:36:00,
2013-02-21 09:41:00,18.0,14.7,29.73,WSW,250,6.0,16.0,87,0.00,,,0.00,meteohub,2013-02-21 16:41:00,
2013-02-21 09:46:00,18.1,15.3,29.74,SE,136,5.0,16.0,88,0.00,,,0.00,meteohub,2013-02-21 16:46:00,
2013-02-21 09:51:00,18.3,15.1,29.74,ESE,119,7.0,16.0,87,0.00,,,0.00,meteohub,2013-02-21 16:51:00,
2013-02-21 09:56:00,18.7,15.8,29.74,SE,145,5.0,14.0,88,0.00,,,0.00,meteohub,2013-02-21 16:56:00,
2013-02-21 10:01:00,18.9,15.6,29.74,SE,133,8.0,12.0,87,0.00,,,0.00,meteohub,2013-02-21 17:01:00,
2013-02-21 10:07:00,18.9,15.6,29.74,SE,128,6.0,11.0,87,0.00,,,0.00,meteohub,2013-02-21 17:07:00,
2013-02-21 10:12:00,18.9,15.4,29.73,SSE,165,4.0,12.0,86,0.00,,,0.00,meteohub,2013-02-21 17:12:00,
2013-02-21 10:17:00,18.7,15.4,29.73,South,181,9.0,12.0,87,0.00,,,0.00,meteohub,2013-02-21 17:17:00,
2013-02-21 10:22:00,18.7,15.4,29.74,SSE,152,4.0,14.0,87,0.00,,,0.00,meteohub,2013-02-21 17:22:00,
2013-02-21 10:27:00,18.5,15.1,29.74,South,179,7.0,14.0,86,0.00,,,0.00,meteohub,2013-02-21 17:27:00,
2013-02-21 10:32:00,18.7,15.4,29.74,South,171,5.0,16.0,87,0.00,,,0.00,meteohub,2013-02-21 17:32:00,
2013-02-21 10:37:00,18.9,15.6,29.75,ESE,120,5.0,16.0,87,0.00,,,0.00,meteohub,2013-02-21 17:37:00,
2013-02-21 10:42:00,19.2,15.8,29.75,SSE,163,3.0,16.0,86,0.00,,,0.00,meteohub,2013-02-21 17:42:00,
2013-02-21 10:47:00,19.2,15.8,29.75,SW,235,8.0,14.0,86,0.00,,,0.00,meteohub,2013-02-21 17:47:00,
2013-02-21 10:52:00,19.2,15.4,29.75,East,101,4.0,15.0,85,0.00,,,0.00,meteohub,2013-02-21 17:52:00,
2013-02-21 10:57:00,19.2,16.0,29.75,ESE,117,5.0,15.0,87,0.00,,,0.00,meteohub,2013-02-21 17:57:00,
2013-02-21 11:02:00,19.4,16.2,29.75,SSE,153,3.0,15.0,87,0.00,,,0.00,meteohub,2013-02-21 18:02:00,
2013-02-21 11:07:00,19.4,16.2,29.76,ESE,117,4.0,12.0,87,0.00,,,0.00,meteohub,2013-02-21 18:07:00,
2013-02-21 11:12:00,19.6,16.2,29.75,West,262,3.0,12.0,86,0.00,,,0.00,meteohub,2013-02-21 18:12:00,
2013-02-21 11:17:00,19.6,16.2,29.75,South,179,5.0,11.0,86,0.00,,,0.00,meteohub,2013-02-21 18:17:00,
2013-02-21 11:22:00,19.8,16.3,29.76,ESE,103,1.0,17.0,86,0.00,,,0.00,meteohub,2013-02-21 18:22:00,
2013-02-21 11:28:00,19.9,16.5,29.76,West,274,3.0,17.0,86,0.00,,,0.00,meteohub,2013-02-21 18:28:00,
2013-02-21 11:33:00,19.9,16.7,29.76,SSE,155,3.0,17.0,87,0.00,,,0.00,meteohub,2013-02-21 18:33:00,
2013-02-21 11:38:00,19.9,16.5,29.76,SE,146,3.0,14.0,86,0.00,,,0.00,meteohub,2013-02-21 18:38:00,
2013-02-21 11:43:00,20.1,16.7,29.76,SSE,166,5.0,11.0,86,0.00,,,0.00,meteohub,2013-02-21 18:43:00,
2013-02-21 11:48:00,20.7,17.4,29.76,WNW,296,4.0,11.0,87,0.00,,,0.00,meteohub,2013-02-21 18:48:00,
2013-02-21 11:54:00,21.0,17.2,29.75,SSE,156,2.0,11.0,85,0.00,,,0.00,meteohub,2013-02-21 18:54:00,
2013-02-21 11:59:00,21.0,17.2,29.75,ESE,120,2.0,10.0,85,0.00,,,0.00,meteohub,2013-02-21 18:59:00,
2013-02-21 12:04:00,20.8,17.1,29.75,SSE,158,4.0,14.0,85,0.00,,,0.00,meteohub,2013-02-21 19:04:00,
2013-02-21 12:09:00,20.7,17.1,29.75,ESE,102,6.0,14.0,86,0.00,,,0.00,meteohub,2013-02-21 19:09:00,
2013-02-21 12:14:00,20.5,16.9,29.75,SSE,163,1.0,10.0,86,0.00,,,0.00,meteohub,2013-02-21 19:14:00,
2013-02-21 12:19:00,20.7,17.1,29.75,ESE,123,3.0,15.0,86,0.00,,,0.00,meteohub,2013-02-21 19:19:00,
2013-02-21 12:24:00,21.2,17.6,29.75,SE,139,2.0,15.0,86,0.00,,,0.00,meteohub,2013-02-21 19:24:00,
2013-02-21 12:29:00,21.9,18.1,29.75,SW,230,6.0,11.0,85,0.00,,,0.00,meteohub,2013-02-21 19:29:00,
2013-02-21 12:34:00,22.5,18.1,29.75,SSE,152,6.0,11.0,83,0.00,,,0.00,meteohub,2013-02-21 19:34:00,
2013-02-21 12:40:00,22.6,18.3,29.75,NE,39,3.0,11.0,83,0.00,,,0.00,meteohub,2013-02-21 19:40:00,
2013-02-21 12:46:00,22.6,18.0,29.75,SSE,167,4.0,12.0,82,0.00,,,0.00,meteohub,2013-02-21 19:46:00,
2013-02-21 12:51:00,22.6,17.8,29.75,East,91,6.0,12.0,81,0.00,,,0.00,meteohub,2013-02-21 19:51:00,
2013-02-21 12:57:00,22.3,17.4,29.74,East,86,7.0,15.0,81,0.00,,,0.00,meteohub,2013-02-21 19:57:00,
2013-02-21 13:02:00,22.3,17.6,29.74,SE,131,6.0,15.0,82,0.00,,,0.00,meteohub,2013-02-21 20:02:00,
2013-02-21 13:07:00,22.5,17.8,29.74,ESE,112,11.0,15.0,82,0.00,,,0.00,meteohub,2013-02-21 20:07:00,
2013-02-21 13:13:00,22.8,18.0,29.74,SE,139,8.0,15.0,81,0.00,,,0.00,meteohub,2013-02-21 20:13:00,
2013-02-21 13:18:00,23.4,17.8,29.74,East,101,9.0,15.0,79,0.00,,,0.00,meteohub,2013-02-21 20:18:00,
2013-02-21 13:30:00,23.4,18.1,29.74,South,176,4.0,15.0,80,0.00,,,0.00,meteohub,2013-02-21 20:30:00,
2013-02-21 13:35:00,24.1,18.5,29.73,South,174,5.0,15.0,79,0.00,,,0.00,meteohub,2013-02-21 20:35:00,
2013-02-21 13:43:00,24.3,18.7,29.73,SSE,150,2.0,14.0,79,0.00,,,0.00,meteohub,2013-02-21 20:43:00,
2013-02-21 13:55:00,23.7,17.6,29.73,ESE,120,11.0,13.0,77,0.00,,,0.00,meteohub,2013-02-21 20:55:00,
2013-02-21 14:00:00,23.5,18.0,29.73,ESE,117,6.0,15.0,79,0.00,,,0.00,meteohub,2013-02-21 21:00:00,
2013-02-21 14:05:00,23.5,18.0,29.74,SE,131,5.0,15.0,79,0.00,,,0.00,meteohub,2013-02-21 21:05:00,
2013-02-21 14:11:00,23.4,18.3,29.74,ESE,117,11.0,19.0,81,0.00,,,0.00,meteohub,2013-02-21 21:11:00,
2013-02-21 14:16:00,23.4,18.1,29.74,ESE,104,6.0,20.0,80,0.00,,,0.00,meteohub,2013-02-21 21:16:00,
2013-02-21 14:22:00,23.7,18.5,29.75,East,101,8.0,20.0,80,0.00,,,0.00,meteohub,2013-02-21 21:22:00,
2013-02-21 14:27:00,23.4,18.1,29.75,SW,222,4.0,20.0,80,0.00,,,0.00,meteohub,2013-02-21 21:27:00,
2013-02-21 14:32:00,23.2,18.1,29.75,SE,127,12.0,12.0,81,0.00,,,0.00,meteohub,2013-02-21 21:32:00,
2013-02-21 14:38:00,23.2,18.1,29.75,ESE,104,8.0,12.0,81,0.00,,,0.00,meteohub,2013-02-21 21:38:00,
2013-02-21 14:58:00,23.4,18.7,29.75,ENE,63,14.0,17.0,82,0.00,,,0.00,meteohub,2013-02-21 21:58:00,
2013-02-21 15:03:00,23.7,18.5,29.75,South,181,7.0,15.0,80,0.00,,,0.00,meteohub,2013-02-21 22:03:00,
2013-02-21 15:09:00,24.3,18.1,29.76,South,177,8.0,14.0,77,0.00,,,0.00,meteohub,2013-02-21 22:09:00,
2013-02-21 15:14:00,24.3,17.4,29.76,ESE,113,6.0,14.0,75,0.00,,,0.00,meteohub,2013-02-21 22:14:00,
2013-02-21 15:19:00,24.1,17.6,29.77,South,188,4.0,13.0,76,0.00,,,0.00,meteohub,2013-02-21 22:19:00,
2013-02-21 15:24:00,23.7,18.1,29.77,West,274,3.0,13.0,79,0.00,,,0.00,meteohub,2013-02-21 22:24:00,
2013-02-21 15:29:00,23.4,17.8,29.78,ESE,113,7.0,13.0,79,0.00,,,0.00,meteohub,2013-02-21 22:29:00,
2013-02-21 15:34:00,23.4,18.1,29.78,South,171,2.0,10.0,80,0.00,,,0.00,meteohub,2013-02-21 22:34:00,
2013-02-21 15:39:00,23.4,18.1,29.78,ESE,117,5.0,13.0,80,0.00,,,0.00,meteohub,2013-02-21 22:39:00,
2013-02-21 15:44:00,23.2,17.6,29.78,SE,126,3.0,13.0,79,0.00,,,0.00,meteohub,2013-02-21 22:44:00,
2013-02-21 15:49:00,23.5,18.0,29.78,SE,143,2.0,14.0,79,0.00,,,0.00,meteohub,2013-02-21 22:49:00,
2013-02-21 15:54:00,23.5,17.8,29.78,ESE,113,5.0,14.0,78,0.00,,,0.00,meteohub,2013-02-21 22:54:00,
2013-02-21 16:00:00,23.5,17.8,29.79,SE,135,3.0,13.0,78,0.00,,,0.00,meteohub,2013-02-21 23:00:00,
2013-02-21 16:05:00,23.5,17.4,29.79,SSE,162,2.0,9.0,77,0.00,,,0.00,meteohub,2013-02-21 23:05:00,
2013-02-21 16:10:00,23.4,17.6,29.80,SSE,160,3.0,20.0,78,0.00,,,0.00,meteohub,2013-02-21 23:10:00,
2013-02-21 16:15:00,23.2,17.6,29.80,ESE,106,10.0,20.0,79,0.00,,,0.00,meteohub,2013-02-21 23:15:00,
2013-02-21 16:20:00,22.6,17.4,29.80,SSW,194,8.0,16.0,80,0.00,,,0.00,meteohub,2013-02-21 23:20:00,
2013-02-21 16:25:00,22.5,17.6,29.80,SE,142,6.0,16.0,81,0.00,,,0.00,meteohub,2013-02-21 23:25:00,
2013-02-21 16:30:00,22.5,18.1,29.80,ESE,115,1.0,14.0,83,0.00,,,0.00,meteohub,2013-02-21 23:30:00,
2013-02-21 16:35:00,22.5,18.1,29.81,WNW,300,3.0,11.0,83,0.00,,,0.00,meteohub,2013-02-21 23:35:00,
2013-02-21 16:41:00,22.6,18.3,29.81,WNW,286,0.0,11.0,83,0.00,,,0.00,meteohub,2013-02-21 23:41:00,
2013-02-21 16:46:00,22.5,17.8,29.81,SE,140,6.0,11.0,82,0.00,,,0.00,meteohub,2013-02-21 23:46:00,
2013-02-21 16:51:00,22.3,17.4,29.81,ESE,116,11.0,11.0,81,0.00,,,0.00,meteohub,2013-02-21 23:51:00,
2013-02-21 16:56:00,21.9,17.2,29.81,SW,222,6.0,16.0,82,0.00,,,0.00,meteohub,2013-02-21 23:56:00,
2013-02-21 17:01:00,21.7,17.1,29.82,SE,139,2.0,16.0,82,0.00,,,0.00,meteohub,2013-02-22 00:01:00,
2013-02-21 17:06:00,21.6,17.2,29.83,SSW,194,6.0,16.0,83,0.00,,,0.00,meteohub,2013-02-22 00:06:00,
2013-02-21 17:11:00,21.6,17.2,29.83,ESE,108,1.0,14.0,83,0.00,,,0.00,meteohub,2013-02-22 00:11:00,
2013-02-21 17:16:00,21.4,16.7,29.83,West,271,3.0,10.0,82,0.00,,,0.00,meteohub,2013-02-22 00:16:00,
2013-02-21 17:22:00,21.0,16.7,29.83,SE,139,4.0,11.0,83,0.00,,,0.00,meteohub,2013-02-22 00:22:00,
2013-02-21 17:27:00,20.8,16.7,29.83,ESE,114,3.0,11.0,84,0.00,,,0.00,meteohub,2013-02-22 00:27:00,
2013-02-21 17:32:00,20.8,16.7,29.83,SSE,152,4.0,11.0,84,0.00,,,0.00,meteohub,2013-02-22 00:32:00,
2013-02-21 17:37:00,20.7,16.5,29.84,ESE,122,5.0,12.0,84,0.00,,,0.00,meteohub,2013-02-22 00:37:00,
2013-02-21 17:42:00,20.7,16.9,29.84,East,86,7.0,12.0,85,0.00,,,0.00,meteohub,2013-02-22 00:42:00,
2013-02-21 17:47:00,20.5,16.7,29.84,ESE,119,5.0,12.0,85,0.00,,,0.00,meteohub,2013-02-22 00:47:00,
2013-02-21 17:52:00,20.5,16.9,29.85,ESE,112,6.0,14.0,86,0.00,,,0.00,meteohub,2013-02-22 00:52:00,
2013-02-21 17:57:00,20.1,16.3,29.85,SE,125,6.0,14.0,85,0.00,,,0.00,meteohub,2013-02-22 00:57:00,
2013-02-21 18:02:00,20.1,16.7,29.85,SSE,150,10.0,14.0,86,0.00,,,0.00,meteohub,2013-02-22 01:02:00,
2013-02-21 18:07:00,19.9,16.7,29.86,ESE,123,3.0,14.0,87,0.00,,,0.00,meteohub,2013-02-22 01:07:00,
2013-02-21 18:12:00,19.8,16.7,29.86,West,278,3.0,14.0,88,0.00,,,0.00,meteohub,2013-02-22 01:12:00,
2013-02-21 18:17:00,19.8,17.1,29.86,SE,134,4.0,13.0,89,0.00,,,0.00,meteohub,2013-02-22 01:17:00,
2013-02-21 18:22:00,19.6,16.9,29.87,WSW,254,2.0,12.0,89,0.00,,,0.00,meteohub,2013-02-22 01:22:00,
2013-02-21 18:27:00,19.6,16.9,29.87,SSW,200,7.0,11.0,89,0.00,,,0.00,meteohub,2013-02-22 01:27:00,
2013-02-21 18:32:00,19.8,17.1,29.88,SE,139,2.0,12.0,89,0.00,,,0.00,meteohub,2013-02-22 01:32:00,
2013-02-21 18:37:00,19.6,16.9,29.88,South,181,4.0,12.0,89,0.00,,,0.00,meteohub,2013-02-22 01:37:00,
2013-02-21 18:42:00,19.6,16.9,29.88,ESE,105,4.0,14.0,89,0.00,,,0.00,meteohub,2013-02-22 01:42:00,
2013-02-21 18:47:00,19.6,16.5,29.89,South,176,6.0,14.0,88,0.00,,,0.00,meteohub,2013-02-22 01:47:00,
2013-02-21 18:52:00,19.4,16.5,29.89,ESE,105,4.0,12.0,88,0.00,,,0.00,meteohub,2013-02-22 01:52:00,
2013-02-21 18:57:00,19.4,16.5,29.89,South,184,6.0,9.0,88,0.00,,,0.00,meteohub,2013-02-22 01:57:00,
2013-02-21 19:02:00,19.2,16.0,29.89,ESE,120,5.0,18.0,87,0.00,,,0.00,meteohub,2013-02-22 02:02:00,
2013-02-21 19:07:00,19.2,16.0,29.89,ESE,103,9.0,18.0,87,0.00,,,0.00,meteohub,2013-02-22 02:07:00,
2013-02-21 19:12:00,19.2,16.0,29.89,NE,56,7.0,15.0,87,0.00,,,0.00,meteohub,2013-02-22 02:12:00,
2013-02-21 19:17:00,19.2,16.0,29.89,ESE,113,8.0,17.0,87,0.00,,,0.00,meteohub,2013-02-22 02:17:00,
2013-02-21 19:22:00,19.2,16.0,29.90,SW,214,6.0,17.0,87,0.00,,,0.00,meteohub,2013-02-22 02:22:00,
2013-02-21 19:27:00,19.2,16.3,29.90,SE,129,7.0,18.0,88,0.00,,,0.00,meteohub,2013-02-22 02:27:00,
2013-02-21 19:32:00,19.0,16.2,29.90,SE,129,3.0,18.0,88,0.00,,,0.00,meteohub,2013-02-22 02:32:00,
2013-02-21 19:37:00,18.9,16.0,29.89,SE,143,8.0,14.0,88,0.00,,,0.00,meteohub,2013-02-22 02:37:00,
2013-02-21 19:42:00,18.9,16.2,29.90,West,260,6.0,14.0,89,0.00,,,0.00,meteohub,2013-02-22 02:42:00,
2013-02-21 19:47:00,18.9,16.2,29.91,SW,215,6.0,14.0,89,0.00,,,0.00,meteohub,2013-02-22 02:47:00,
2013-02-21 19:52:00,18.7,16.0,29.91,NW,309,2.0,17.0,89,0.00,,,0.00,meteohub,2013-02-22 02:52:00,
2013-02-21 19:57:00,18.7,16.0,29.91,SE,141,6.0,17.0,89,0.00,,,0.00,meteohub,2013-02-22 02:57:00,
2013-02-21 20:02:00,18.7,16.0,29.91,SE,141,5.0,17.0,89,0.00,,,0.00,meteohub,2013-02-22 03:02:00,
2013-02-21 20:07:00,18.7,16.2,29.92,SE,139,5.0,14.0,90,0.00,,,0.00,meteohub,2013-02-22 03:07:00,
2013-02-21 20:12:00,18.7,16.2,29.92,SW,222,4.0,13.0,90,0.00,,,0.00,meteohub,2013-02-22 03:12:00,
2013-02-21 20:17:00,18.7,16.2,29.93,SE,136,3.0,12.0,90,0.00,,,0.00,meteohub,2013-02-22 03:17:00,
2013-02-21 20:22:00,18.7,16.2,29.94,SSE,160,4.0,14.0,90,0.00,,,0.00,meteohub,2013-02-22 03:22:00,
2013-02-21 20:27:00,18.9,16.3,29.94,SSE,149,3.0,14.0,90,0.00,,,0.00,meteohub,2013-02-22 03:27:00,
2013-02-21 20:32:00,18.9,16.3,29.94,ESE,122,2.0,14.0,90,0.00,,,0.00,meteohub,2013-02-22 03:32:00,
2013-02-21 20:37:00,18.7,16.2,29.94,SE,139,3.0,13.0,90,0.00,,,0.00,meteohub,2013-02-22 03:37:00,
2013-02-21 20:42:00,18.7,16.2,29.94,SE,124,7.0,13.0,90,0.00,,,0.00,meteohub,2013-02-22 03:42:00,
2013-02-21 20:47:00,18.7,16.2,29.94,East,98,7.0,11.0,90,0.00,,,0.00,meteohub,2013-02-22 03:47:00,
2013-02-21 20:52:00,18.7,16.2,29.94,SE,126,8.0,11.0,90,0.00,,,0.00,meteohub,2013-02-22 03:52:00,
2013-02-21 20:57:00,18.7,16.2,29.94,WSW,242,10.0,12.0,90,0.00,,,0.00,meteohub,2013-02-22 03:57:00,
2013-02-21 21:02:00,18.7,16.2,29.93,ESE,105,8.0,12.0,90,0.00,,,0.00,meteohub,2013-02-22 04:02:00,
2013-02-21 21:07:00,18.7,16.2,29.93,WSW,240,7.0,12.0,90,0.00,,,0.00,meteohub,2013-02-22 04:07:00,
2013-02-21 21:12:00,18.7,16.5,29.94,SE,139,6.0,12.0,91,0.00,,,0.00,meteohub,2013-02-22 04:12:00,
2013-02-21 21:17:00,18.5,16.3,29.94,South,179,6.0,12.0,91,0.00,,,0.00,meteohub,2013-02-22 04:17:00,
2013-02-21 21:22:00,18.5,16.3,29.94,East,85,5.0,12.0,91,0.00,,,0.00,meteohub,2013-02-22 04:22:00,
2013-02-21 21:28:00,18.5,16.3,29.94,SE,139,3.0,10.0,91,0.00,,,0.00,meteohub,2013-02-22 04:28:00,
2013-02-21 21:33:00,18.5,16.3,29.94,SSW,207,3.0,10.0,91,0.00,,,0.00,meteohub,2013-02-22 04:33:00,
2013-02-21 21:38:00,18.5,16.3,29.94,SE,134,4.0,10.0,91,0.00,,,0.00,meteohub,2013-02-22 04:38:00,
2013-02-21 21:43:00,18.5,16.0,29.95,SE,134,7.0,12.0,90,0.00,,,0.00,meteohub,2013-02-22 04:43:00,
2013-02-21 21:48:00,18.7,16.2,29.95,ESE,107,2.0,13.0,90,0.00,,,0.00,meteohub,2013-02-22 04:48:00,
2013-02-21 21:53:00,18.7,16.2,29.96,ESE,122,5.0,13.0,90,0.00,,,0.00,meteohub,2013-02-22 04:53:00,
2013-02-21 21:58:00,18.7,16.0,29.96,SE,143,3.0,13.0,89,0.00,,,0.00,meteohub,2013-02-22 04:58:00,
2013-02-21 22:00:00,18.7,16.0,29.96,South,171,3.0,13.0,89,0.00,,,0.00,meteohub,2013-02-22 05:00:00,
2013-02-21 22:02:00,18.7,15.8,29.96,ESE,106,6.0,8.0,88,0.00,,,0.00,meteohub,2013-02-22 05:02:00,
2013-02-21 22:03:00,18.7,15.8,29.96,SE,143,5.0,8.0,88,0.00,,,0.00,meteohub,2013-02-22 05:03:00,
2013-02-21 22:08:00,18.9,16.0,29.96,ESE,110,8.0,8.0,88,0.00,,,0.00,meteohub,2013-02-22 05:08:00,
2013-02-21 22:13:00,18.9,16.0,29.96,SE,142,6.0,7.0,88,0.00,,,0.00,meteohub,2013-02-22 05:13:00,
2013-02-21 22:18:00,18.9,15.6,29.96,SE,136,6.0,8.0,87,0.00,,,0.00,meteohub,2013-02-22 05:18:00,
2013-02-21 22:23:00,18.9,15.4,29.96,ESE,103,7.0,10.0,86,0.00,,,0.00,meteohub,2013-02-22 05:23:00,
2013-02-21 22:28:00,18.9,15.4,29.96,ESE,122,4.0,10.0,86,0.00,,,0.00,meteohub,2013-02-22 05:28:00,
2013-02-21 22:34:00,18.9,15.4,29.96,SSE,157,4.0,11.0,86,0.00,,,0.00,meteohub,2013-02-22 05:34:00,
2013-02-21 22:39:00,18.9,15.4,29.96,South,191,3.0,12.0,86,0.00,,,0.00,meteohub,2013-02-22 05:39:00,
2013-02-21 22:44:00,18.9,15.4,29.96,ESE,120,4.0,12.0,86,0.00,,,0.00,meteohub,2013-02-22 05:44:00,
2013-02-21 22:49:00,18.9,15.6,29.96,SE,145,3.0,12.0,87,0.00,,,0.00,meteohub,2013-02-22 05:49:00,
2013-02-21 22:54:00,18.7,15.4,29.97,ESE,116,4.0,10.0,87,0.00,,,0.00,meteohub,2013-02-22 05:54:00,
2013-02-21 22:59:00,18.7,15.4,29.96,WSW,255,4.0,8.0,87,0.00,,,0.00,meteohub,2013-02-22 05:59:00,
2013-02-21 23:04:00,18.7,15.4,29.96,SSE,164,4.0,8.0,87,0.00,,,0.00,meteohub,2013-02-22 06:04:00,
2013-02-21 23:09:00,18.7,15.4,29.96,SE,131,2.0,8.0,87,0.00,,,0.00,meteohub,2013-02-22 06:09:00,
2013-02-21 23:14:00,18.7,15.4,29.96,SSE,162,3.0,8.0,87,0.00,,,0.00,meteohub,2013-02-22 06:14:00,
2013-02-21 23:19:00,18.7,15.4,29.96,ESE,111,5.0,8.0,87,0.00,,,0.00,meteohub,2013-02-22 06:19:00,
2013-02-21 23:25:00,18.7,15.8,29.96,SE,146,3.0,8.0,88,0.00,,,0.00,meteohub,2013-02-22 06:25:00,
2013-02-21 23:30:00,18.5,15.8,29.96,SE,146,6.0,7.0,89,0.00,,,0.00,meteohub,2013-02-22 06:30:00,
2013-02-21 23:35:00,18.3,15.6,29.96,SE,143,7.0,9.0,89,0.00,,,0.00,meteohub,2013-02-22 06:35:00,
2013-02-21 23:40:00,18.3,15.8,29.96,SSE,153,6.0,10.0,90,0.00,,,0.00,meteohub,2013-02-22 06:40:00,
2013-02-21 23:45:00,18.3,15.8,29.96,SE,139,3.0,10.0,90,0.00,,,0.00,meteohub,2013-02-22 06:45:00,
2013-02-21 23:50:00,18.1,15.6,29.96,SW,214,5.0,11.0,90,0.00,,,0.00,meteohub,2013-02-22 06:50:00,
2013-02-21 23:55:00,18.1,15.6,29.95,SE,139,5.0,11.0,90,0.00,,,0.00,meteohub,2013-02-22 06:55:00,